Weather History for KALN - December, 2011

Change the Weather History Date:

Tuesday, December 27, 2011

  Actual Average Record
Temperature  
Mean Temperature 34 °F -  
Max Temperature 41 °F 38 °F 68 °F (2008)
Min Temperature 28 °F 22 °F 12 °F (2000)
Degree Days  
Heating Degree Days 30    
Moisture  
Dew Point 32 °F    
Average Humidity 92    
Maximum Humidity 100    
Minimum Humidity 70    
Precipitation  
Precipitation 0.19 in - - ()
Sea Level Pressure  
Sea Level Pressure 29.89 in    
Wind  
Wind Speed 6 mph (WNW)    
Max Wind Speed 23 mph    
Max Gust Speed 32 mph    
Visibility 6 miles    
Events Rain , Snow    
Averages and records for this station are not official NWS values.
T = Trace of Precipitation, MM = Missing Value Source: NWS Daily Summary

Daily Weather History Graph

Daily Weather History Graph

Search for Another Location

Airport or City:

Trip Planner

Search our weather history database for the weather conditions in past years. The results will help you decide how hot, cold, wet, or windy it might be!

Date:

Astronomy

Dec. 27, 2011 Rise Set
Actual Time 7:17 AM CST 4:44 PM CST
Civil Twilight 6:47 AM CST 5:14 PM CST
Nautical Twilight 6:14 AM CST 5:48 PM CST
Astronomical Twilight 5:41 AM CST 6:20 PM CST
Moon 9:14 AM CST 8:16 PM CST
Length of Visible Light 10h 27m
Length of Day
9h 27m
Waxing Crescent, 11% of the Moon is Illuminated
Dec 27
Waxing Crescent
Jan 1
First Quarter
Jan 9
Full
Jan 16
Last Quarter
Jan 23
New

Hourly Weather History & Observations

Time (CST) Temp. Windchill Dew Point Humidity Pressure Visibility Wind Dir Wind Speed Gust Speed Precip Events Conditions
12:15 AM 34.7 °F 30.6 °F 34.7 °F 100% 29.86 in 2.5 mi ESE 4.6 mph - N/A Rain Light Rain
12:35 AM 34.7 °F 31.8 °F 34.7 °F 100% 29.86 in 2.5 mi ESE 3.5 mph - N/A Rain Rain
12:55 AM 34.5 °F 31.6 °F 34.5 °F 100% 29.83 in 2.5 mi East 3.5 mph - 0.01 in Rain Light Rain
1:15 AM 34.3 °F - 34.3 °F 100% 29.82 in 3.0 mi Calm Calm - 0.01 in Rain Light Rain
1:35 AM 34.2 °F - 34.2 °F 100% 29.81 in 2.5 mi Calm Calm - 0.01 in Rain Rain
1:55 AM 33.8 °F - 33.8 °F 100% 29.80 in 2.0 mi Calm Calm - 0.03 in Rain Light Rain
2:15 AM 33.3 °F 28.9 °F 33.3 °F 100% 29.82 in 2.0 mi SW 4.6 mph - N/A Rain Light Rain
2:35 AM 33.1 °F 27.7 °F 33.1 °F 100% 29.81 in 1.5 mi WSW 5.8 mph - 0.01 in Snow Light Snow
2:55 AM 32.9 °F 28.5 °F 32.9 °F 100% 29.81 in 1.8 mi WSW 4.6 mph - 0.04 in Snow Light Snow
3:15 AM 32.9 °F 28.5 °F 32.9 °F 100% 29.80 in 1.8 mi West 4.6 mph - N/A Snow Light Snow
3:35 AM 32.9 °F 28.5 °F 32.9 °F 100% 29.80 in 1.2 mi West 4.6 mph - 0.01 in Snow Light Snow
3:55 AM 32.9 °F 28.5 °F 32.9 °F 100% 29.79 in 1.8 mi West 4.6 mph - 0.02 in Snow Light Snow
4:15 AM 32.9 °F 28.5 °F 32.9 °F 100% 29.78 in 1.2 mi West 4.6 mph - 0.01 in Snow Light Snow
4:35 AM 32.9 °F 29.8 °F 32.9 °F 100% 29.77 in 1.5 mi West 3.5 mph - 0.03 in Snow Light Snow
4:55 AM 32.9 °F 29.8 °F 32.9 °F 100% 29.76 in 1.8 mi West 3.5 mph - 0.06 in Snow Light Snow
5:15 AM 32.9 °F 29.8 °F 32.9 °F 100% 29.75 in 1.8 mi West 3.5 mph - 0.03 in Snow Light Snow
5:35 AM 32.9 °F 29.8 °F 32.9 °F 100% 29.75 in 5.0 mi West 3.5 mph - 0.03 in Snow Light Snow
5:55 AM 32.9 °F - 32.9 °F 100% 29.74 in 5.0 mi Calm Calm - 0.03 in Snow Light Snow
6:50 AM 33.8 °F 27.7 °F 33.8 °F 100% 29.74 in 7.0 mi West 6.9 mph - N/A   Overcast
7:50 AM 33.8 °F 24.3 °F 33.8 °F 100% 29.73 in 7.0 mi WNW 13.8 mph - N/A   Overcast
9:50 AM 37.4 °F 28.2 °F 35.6 °F 93% 29.77 in 10.0 mi WNW 16.1 mph - N/A   Clear
10:50 AM 39.2 °F 28.7 °F 33.8 °F 81% 29.77 in 10.0 mi WNW 23.0 mph - N/A   Clear
11:50 AM 41.0 °F 31.1 °F 35.6 °F 81% 29.78 in 10.0 mi WNW 23.0 mph - N/A   Mostly Cloudy
12:50 PM 41.0 °F 32.2 °F 33.8 °F 76% 29.79 in 10.0 mi WNW 18.4 mph - N/A   Overcast
2:50 PM 41.0 °F 31.1 °F 32.0 °F 70% 29.87 in 10.0 mi WNW 23.0 mph 32.2 mph N/A   Overcast
4:50 PM 39.2 °F 32.0 °F 32.0 °F 75% 29.95 in 10.0 mi WNW 11.5 mph - N/A   Mostly Cloudy
6:50 PM 35.6 °F 29.2 °F 30.2 °F 81% 30.01 in 10.0 mi NNW 8.1 mph - N/A   Mostly Cloudy
7:50 PM 33.8 °F 26.4 °F 28.4 °F 81% 30.03 in 10.0 mi NNW 9.2 mph - N/A   Clear
8:50 PM 33.8 °F 26.4 °F 28.4 °F 81% 30.04 in 10.0 mi NNW 9.2 mph - N/A   Clear
9:15 PM 33.1 °F 30.0 °F 28.4 °F 83% 30.05 in 10.0 mi NW 3.5 mph - N/A   Clear
9:35 PM 32.7 °F 28.3 °F 28.2 °F 83% 30.05 in 10.0 mi WNW 4.6 mph - N/A   Clear
9:50 PM 30.2 °F 21.9 °F 26.6 °F 86% 30.06 in 10.0 mi WNW 9.2 mph - N/A   Clear
9:55 PM 30.4 °F 23.6 °F 27.3 °F 88% 30.06 in 10.0 mi West 6.9 mph - N/A   Clear
10:15 PM 30.7 °F 23.3 °F 27.9 °F 89% 30.06 in 10.0 mi West 8.1 mph - N/A   Clear
10:35 PM 30.4 °F 24.5 °F 27.7 °F 90% 30.07 in 10.0 mi West 5.8 mph - N/A   Clear
10:55 PM 28.9 °F 23.9 °F 26.8 °F 92% 30.08 in 10.0 mi West 4.6 mph - N/A   Clear
11:15 PM 28.9 °F 23.9 °F 26.6 °F 91% 30.09 in 10.0 mi WNW 4.6 mph - N/A   Clear
11:35 PM 28.6 °F 22.4 °F 26.8 °F 93% 30.09 in 10.0 mi West 5.8 mph - N/A   Clear
11:55 PM 28.4 °F 21.2 °F 26.6 °F 93% 30.09 in 10.0 mi West 6.9 mph - N/A   Clear